Flag for Portugal

Past Weather in Amadora, Lisbon, Portugal — Yesterday and Last 2 Weeks

Now
72 °F

Passing clouds.


Feels Like: 76 °F
Forecast: 85 / 65 °F
Wind: 9 mph from Northwest

Location: Lisbon Portela Airport

Current Time: Aug 6, 2020 at 2:38:20 am

Latest Report: Aug 6, 2020 at 1:30 am


Visibility: N/A

Pressure: 29.86 "Hg

Humidity: 57%

Dew Point: 55 °F

Location of AmadoraLocation

Past Weather in Amadora — Graph

°F

Amadora Temperature Yesterday

Maximum temperature yesterday: 90 °F (at 2:30 pm)
Minimum temperature yesterday: 64 °F (at 5:00 am)
Average temperature yesterday: 75 °F

High & Low Weather Summary for the Past Weeks

 TemperatureHumidityPressure
High90 °F (Jul 22, 3:30 pm)94% (Jul 23, 6:30 am)30.15 "Hg (Jul 23, 6:30 am)
Low63 °F (Jul 23, 6:30 am)29% (Jul 23, 5:30 pm)29.83 "Hg (Aug 5, 4:00 pm)
Average73 °F67%30.00 "Hg
* Reported Jul 22 1:00 am — Aug 6 1:30 am, Amadora. Weather by CustomWeather, © 2020

Note: Actual official high and low records may vary slightly from our data, if they occured in-between our weather recording intervals... More about our weather records

Amadora Weather History for the Previous 24 Hours

Scroll right to see more
 ConditionsComfort  
Time TempWeatherWind HumidityBarometerVisibility
1:30 am
Thu, Aug 6
72 °FPassing clouds.9 mph57%29.86 "HgN/A
1:00 am72 °FClear.9 mph57%29.86 "Hg10 mi
12:30 am72 °FPassing clouds.8 mph57%29.86 "HgN/A
12:00 am72 °FClear.8 mph57%29.86 "Hg10 mi
11:30 pm
Wed, Aug 5
72 °FPassing clouds.6 mph57%29.86 "HgN/A
11:00 pm72 °FClear.8 mph57%29.86 "Hg10 mi
10:30 pm72 °FPassing clouds.7 mph57%29.86 "HgN/A
10:00 pm73 °FPassing clouds.13 mph53%29.86 "HgN/A
9:30 pm73 °FPassing clouds.13 mph44%29.86 "HgN/A
8:30 pm77 °FSunny.16 mph39%29.83 "Hg10 mi
8:00 pm79 °FSunny.17 mph39%29.83 "Hg10 mi
7:30 pm81 °FSunny.16 mph39%29.83 "Hg10 mi
7:00 pm82 °FSunny.15 mph40%29.83 "Hg10 mi
6:30 pm84 °FSunny.16 mph43%29.83 "Hg10 mi
6:00 pm86 °FSunny.15 mph40%29.83 "Hg10 mi
5:30 pm86 °FSunny.15 mph40%29.83 "Hg10 mi
5:00 pm88 °FSunny.15 mph38%29.83 "Hg10 mi
4:30 pm88 °FPassing clouds.15 mph40%29.83 "HgN/A
4:00 pm88 °FPassing clouds.15 mph40%29.83 "HgN/A
3:30 pm90 °FPassing clouds.9 mph33%29.86 "HgN/A
3:00 pm90 °FSunny.9 mph33%29.86 "Hg10 mi
2:30 pm90 °FPassing clouds.9 mph33%29.86 "HgN/A
2:00 pm88 °FPassing clouds.9 mph35%29.86 "HgN/A
1:30 pm88 °FPassing clouds.8 mph38%29.86 "HgN/A
1:00 pm86 °FPassing clouds.8 mph43%29.89 "HgN/A
12:30 pm82 °FPassing clouds.7 mph48%29.89 "HgN/A
12:00 pm81 °FPassing clouds.8 mph51%29.89 "HgN/A
11:30 am79 °FPassing clouds.9 mph58%29.89 "HgN/A
11:00 am77 °FPassing clouds.12 mph61%29.89 "HgN/A
10:30 am73 °FPassing clouds.14 mph65%29.89 "HgN/A
10:00 am72 °FPassing clouds.12 mph73%29.89 "HgN/A
9:30 am70 °FPassing clouds.12 mph78%29.89 "HgN/A
9:00 am70 °FPassing clouds.10 mph73%29.89 "HgN/A
8:30 am68 °FPassing clouds.10 mph78%29.89 "HgN/A
8:00 am66 °FPassing clouds.9 mph83%29.89 "HgN/A
7:30 am66 °FPassing clouds.12 mph83%29.89 "HgN/A
7:00 am64 °FPassing clouds.12 mph88%29.89 "HgN/A
6:30 am64 °FPassing clouds.13 mph88%29.86 "HgN/A
6:00 am66 °FClear.14 mph83%29.86 "Hg10 mi
5:30 am66 °FClear.13 mph83%29.86 "Hg10 mi
5:00 am64 °FClear.14 mph88%29.86 "Hg10 mi
4:30 am66 °FClear.14 mph83%29.86 "Hg10 mi
4:00 am66 °FClear.14 mph83%29.89 "Hg10 mi
3:30 am66 °FClear.14 mph78%29.89 "Hg10 mi
3:00 am66 °FClear.13 mph78%29.89 "Hg10 mi
2:30 am66 °FPassing clouds.10 mph78%29.89 "HgN/A
Weather by CustomWeather, © 2020

See weather overview